Location: Unspecified
(0.0000°N, 0.0000°E)
Time: 11:23:39
(UTC+00:00)

A-11 Canister half - Pass Details

Date: 25 November 2019
Orbit: 1526 x 1683 km, 47.3° (Epoch: 07 December)

Event Time Altitude Azimuth Distance (km) Brightness Sun altitude
Rises 06:01:38 0° 207° (SSW) 4,867 11.6 3.5°
Reaches altitude 10° 06:04:57 10° 201° (SSW) 3,898 11.2 4.2°
Maximum altitude 06:14:26 47° 130° (SE) 2,125 10.6 6.5°
Drops below altitude 10° 06:23:58 10° 59° (ENE) 3,937 11.8 8.7°
Sets 06:27:18 0° 54° (NE) 4,920 12.1 9.5°
